sat.trackr.live / text

‹ back to catalog

STARLINK-2471

NORAD 48129 · 2021-027AP

PAYLOAD ACTIVE UNKNOWN

§ Identity

Operator
Country
US
Launch date
2021-04-07
Launch site
AFETR
Launch vehicle
Mass (kg)
RCS (m²)

Purposes: comms

External: N2YO · Heavens-Above · Gunter

§ Orbital elements

Epoch: 2026-05-25T02:11:27.221856Z

Period
94.01 min
Inclination
53.1585°
Eccentricity
0.0000847
Mean motion
15.31703416 rev/d
Perigee alt
470.1 km
Apogee alt
471.3 km
Semi-major
6,848.9 km
B*
-2.7943e-5
RAAN
170.2234°
Arg perigee
66.1070°
Mean anomaly
294.0020°
Rev number
28,421

§ Raw data

STARLINK-24711 48129U 21027AP  26145.09128729 -.00001232  00000+0 -27943-4 0  99902 48129  53.1585 170.2234 0000847  66.1070 294.0020 15.31703416284216

JSON: /api/v1/satellites/48129 · /tle

For live sub-satellite position, see the globe view (requires WebGL).

§ Visibility from observer

Set your observer location to see the next 7 days of passes ≥ 10°. The values pass through the URL so the page stays shareable.

No JS? Fill the form by hand. The geolocation button needs JavaScript.